Location: Asheville, NC
(35.6000°N, 82.5500°W)
Time: 03:10:42
(UTC-04:00)

Vanguard 1 - Pass Details

Date: 09 February 2018
Orbit: 650 x 3833 km, 34.3° (Epoch: 24 May)

Event Time Altitude Azimuth Distance (km) Brightness Sun altitude
Rises 21:56:34 0° 275° (W) 2,986 13.2 -46.9°
Enters shadow 21:57:12 - 274° (W) 2,717 13.0 -47.0°
Reaches altitude 10° 21:58:49 10° 272° (W) 2,041 - -47.3°
Maximum altitude 22:03:08 62° 191° (S) 781 - -48.2°
Drops below altitude 10° 22:08:33 10° 111° (ESE) 2,542 - -49.2°
Sets 22:11:40 0° 109° (ESE) 3,812 - -49.8°
